• Em Portugal
  • Lista de países
  • Para 7 dias
  • Temperatura da água
  • Mapas de satélite
  • Mapa do tempo
  • Widgets de tempo
  • user-avatar
    Iniciar Sessão

    Previsão horária em Roscino

    Hoje, 17 Outubro, Quarta-feira

    Tempo Temperatura Precipitação Vento Pressão Humidade
    00:00 +14°C° 0 mm 2 m/s 763 mmHg 65%
    01:00 +14°C° 0 mm 2 m/s 763 mmHg 65%
    02:00 +13°C° 0 mm 2 m/s 763 mmHg 67%
    03:00 +13°C° 0 mm 2 m/s 763 mmHg 69%
    04:00 +13°C° 0 mm 2 m/s 763 mmHg 70%
    05:00 +13°C° 0 mm 2 m/s 763 mmHg 72%
    06:00 +12°C° 0 mm 2 m/s 763 mmHg 74%
    07:00 +12°C° 0 mm 2 m/s 763 mmHg 73%
    08:00 +14°C° 0 mm 2 m/s 763 mmHg 68%
    09:00 +16°C° 0 mm 2 m/s 763 mmHg 63%
    10:00 +18°C° 0 mm 2 m/s 763 mmHg 57%
    11:00 +19°C° 0 mm 2 m/s 763 mmHg 54%
    12:00 +20°C° 0 mm 2 m/s 763 mmHg 50%
    13:00 +22°C° 0 mm 1 m/s 763 mmHg 47%
    14:00 +22°C° 0 mm 1 m/s 763 mmHg 50%
    15:00 +21°C° 0 mm 1 m/s 763 mmHg 53%
    16:00 +21°C° 0 mm 1 m/s 763 mmHg 56%
    17:00 +19°C° 0 mm 1 m/s 763 mmHg 59%
    18:00 +18°C° 0 mm 1 m/s 763 mmHg 62%
    19:00 +16°C° 0 mm 1 m/s 763 mmHg 66%
    20:00 +15°C° 0 mm 1 m/s 763 mmHg 67%
    21:00 +15°C° 0 mm 1 m/s 763 mmHg 68%
    22:00 +14°C° 0 mm 1 m/s 763 mmHg 70%
    23:00 +14°C° 0 mm 1 m/s 763 mmHg 71%

    Amanhã, 18 Outubro, Quinta-feira

    Tempo Temperatura Precipitação Vento Pressão Humidade
    00:00 +14°C° 0 mm 2 m/s 763 mmHg 71%
    01:00 +13°C° 0 mm 2 m/s 763 mmHg 72%
    02:00 +13°C° 0 mm 1 m/s 763 mmHg 73%
    03:00 +13°C° 0 mm 1 m/s 762 mmHg 75%
    04:00 +12°C° 0 mm 1 m/s 762 mmHg 76%
    05:00 +12°C° 0 mm 1 m/s 762 mmHg 76%
    06:00 +12°C° 0 mm 1 m/s 762 mmHg 77%
    07:00 +12°C° 0 mm 1 m/s 762 mmHg 78%
    08:00 +14°C° 0 mm 1 m/s 762 mmHg 72%
    09:00 +16°C° 0 mm 1 m/s 762 mmHg 66%
    10:00 +17°C° 0 mm 2 m/s 762 mmHg 60%
    11:00 +18°C° 0 mm 2 m/s 763 mmHg 59%
    12:00 +19°C° 0 mm 2 m/s 763 mmHg 58%
    13:00 +19°C° 0 mm 3 m/s 763 mmHg 56%
    14:00 +19°C° 0 mm 3 m/s 763 mmHg 62%
    15:00 +18°C° 0 mm 3 m/s 763 mmHg 67%
    16:00 +17°C° 0 mm 3 m/s 763 mmHg 72%
    17:00 +16°C° 0 mm 3 m/s 763 mmHg 77%
    18:00 +14°C° 0 mm 3 m/s 763 mmHg 82%
    19:00 +13°C° 0 mm 3 m/s 764 mmHg 88%
    20:00 +12°C° 0 mm 3 m/s 764 mmHg 87%
    21:00 +12°C° 0 mm 3 m/s 764 mmHg 86%
    22:00 +11°C° 0 mm 3 m/s 765 mmHg 85%
    23:00 +11°C° 0 mm 3 m/s 765 mmHg 85%

    Depois de amanhã, 19 Outubro, Sexta-feira

    Tempo Temperatura Precipitação Vento Pressão Humidade
    00:00 +11°C° 0 mm 3 m/s 765 mmHg 84%
    01:00 +10°C° 0 mm 3 m/s 765 mmHg 84%
    02:00 +10°C° 0 mm 3 m/s 765 mmHg 85%
    03:00 +10°C° 0 mm 2 m/s 765 mmHg 87%
    04:00 +9°C° 0 mm 2 m/s 765 mmHg 88%
    05:00 +9°C° 0 mm 2 m/s 766 mmHg 89%
    06:00 +9°C° 0 mm 2 m/s 766 mmHg 90%
    07:00 +9°C° 0 mm 2 m/s 766 mmHg 91%
    08:00 +10°C° 0 mm 2 m/s 766 mmHg 83%
    09:00 +13°C° 0 mm 2 m/s 767 mmHg 74%
    10:00 +15°C° 0 mm 2 m/s 767 mmHg 66%
    11:00 +15°C° 0 mm 2 m/s 767 mmHg 62%
    12:00 +16°C° 0 mm 2 m/s 767 mmHg 58%
    13:00 +16°C° 0 mm 2 m/s 767 mmHg 54%
    14:00 +16°C° 0 mm 2 m/s 767 mmHg 57%
    15:00 +15°C° 0 mm 2 m/s 767 mmHg 61%
    16:00 +14°C° 0 mm 2 m/s 767 mmHg 65%
    17:00 +13°C° 0 mm 2 m/s 767 mmHg 70%
    18:00 +12°C° 0 mm 2 m/s 767 mmHg 76%
    19:00 +9°C° 0 mm 2 m/s 768 mmHg 81%
    20:00 +9°C° 0 mm 2 m/s 768 mmHg 82%
    21:00 +9°C° 0 mm 2 m/s 768 mmHg 83%
    22:00 +8°C° 0 mm 2 m/s 768 mmHg 85%
    23:00 +8°C° 0 mm 2 m/s 768 mmHg 86%

    20 Outubro, Sábado

    Tempo Temperatura Precipitação Vento Pressão Humidade
    00:00 +8°C° 0 mm 2 m/s 768 mmHg 87%
    01:00 +8°C° 0 mm 2 m/s 769 mmHg 88%
    02:00 +8°C° 0 mm 2 m/s 769 mmHg 89%
    03:00 +8°C° 0 mm 3 m/s 769 mmHg 89%
    04:00 +8°C° 0 mm 3 m/s 769 mmHg 89%
    05:00 +8°C° 0 mm 3 m/s 769 mmHg 89%
    06:00 +8°C° 0 mm 3 m/s 769 mmHg 89%
    07:00 +8°C° 0 mm 3 m/s 770 mmHg 90%
    08:00 +9°C° 0 mm 3 m/s 770 mmHg 83%
    09:00 +10°C° 0 mm 4 m/s 770 mmHg 77%
    10:00 +12°C° 0 mm 4 m/s 770 mmHg 70%
    11:00 +12°C° 0 mm 5 m/s 770 mmHg 68%
    12:00 +12°C° 0 mm 5 m/s 770 mmHg 65%
    13:00 +12°C° 0 mm 5 m/s 770 mmHg 63%
    14:00 +12°C° 0 mm 5 m/s 770 mmHg 66%
    15:00 +12°C° 0 mm 5 m/s 770 mmHg 69%
    16:00 +10°C° 0 mm 5 m/s 770 mmHg 72%
    17:00 +10°C° 0.1 mm 5 m/s 770 mmHg 74%
    18:00 +10°C° 0.1 mm 5 m/s 770 mmHg 77%
    19:00 +10°C° 0.1 mm 5 m/s 770 mmHg 80%
    20:00 +10°C° 0 mm 5 m/s 770 mmHg 83%
    21:00 +10°C° 0 mm 4 m/s 770 mmHg 87%
    22:00 +10°C° 0 mm 4 m/s 770 mmHg 90%
    23:00 +8°C° 0 mm 4 m/s 770 mmHg 91%

    21 Outubro, Domingo

    Tempo Temperatura Precipitação Vento Pressão Humidade
    00:00 +9°C° 0 mm 3 m/s 770 mmHg 91%
    01:00 +9°C° 0 mm 3 m/s 770 mmHg 91%
    02:00 +9°C° 0 mm 3 m/s 770 mmHg 92%
    03:00 +9°C° 0 mm 2 m/s 770 mmHg 92%
    04:00 +9°C° 0 mm 2 m/s 770 mmHg 92%
    05:00 +8°C° 0 mm 2 m/s 770 mmHg 93%
    06:00 +8°C° 0 mm 2 m/s 770 mmHg 94%
    07:00 +8°C° 0 mm 2 m/s 770 mmHg 95%
    08:00 +9°C° 0 mm 2 m/s 770 mmHg 91%
    09:00 +11°C° 0 mm 3 m/s 770 mmHg 87%
    10:00 +12°C° 0 mm 3 m/s 770 mmHg 83%
    11:00 +12°C° 0 mm 3 m/s 770 mmHg 82%
    12:00 +12°C° 0 mm 4 m/s 770 mmHg 81%
    13:00 +12°C° 0 mm 4 m/s 770 mmHg 80%
    14:00 +12°C° 0 mm 4 m/s 769 mmHg 81%
    15:00 +12°C° 0 mm 3 m/s 769 mmHg 81%
    16:00 +12°C° 0 mm 3 m/s 769 mmHg 82%
    17:00 +11°C° 0 mm 3 m/s 768 mmHg 86%
    18:00 +10°C° 0 mm 3 m/s 768 mmHg 89%
    19:00 +8°C° 0 mm 4 m/s 768 mmHg 92%
    20:00 +8°C° 0 mm 4 m/s 768 mmHg 92%
    21:00 +8°C° 0 mm 4 m/s 768 mmHg 92%
    22:00 +8°C° 0 mm 4 m/s 767 mmHg 91%
    23:00 +8°C° 0 mm 4 m/s 767 mmHg 88%

    22 Outubro, Segunda-feira

    Tempo Temperatura Precipitação Vento Pressão Humidade
    00:00 +9°C° 0 mm 5 m/s 767 mmHg 85%
    01:00 +9°C° 0 mm 5 m/s 766 mmHg 81%
    02:00 +9°C° 0 mm 5 m/s 766 mmHg 78%
    03:00 +9°C° 0 mm 5 m/s 766 mmHg 75%
    04:00 +9°C° 0 mm 5 m/s 766 mmHg 72%
    05:00 +9°C° 0 mm 5 m/s 766 mmHg 70%
    06:00 +9°C° 0 mm 5 m/s 765 mmHg 69%
    07:00 +9°C° 0 mm 5 m/s 765 mmHg 68%
    08:00 +10°C° 0.3 mm 5 m/s 766 mmHg 72%
    09:00 +10°C° 0.3 mm 5 m/s 766 mmHg 75%
    10:00 +10°C° 0.3 mm 5 m/s 767 mmHg 79%
    11:00 +11°C° 0.1 mm 6 m/s 767 mmHg 75%
    12:00 +11°C° 0.1 mm 6 m/s 767 mmHg 71%
    13:00 +13°C° 0.1 mm 6 m/s 767 mmHg 66%
    14:00 +11°C° 0 mm 6 m/s 767 mmHg 66%
    15:00 +10°C° 0 mm 6 m/s 767 mmHg 65%
    16:00 +10°C° 0 mm 7 m/s 767 mmHg 65%
    17:00 +9°C° 0 mm 6 m/s 767 mmHg 67%
    18:00 +9°C° 0 mm 6 m/s 767 mmHg 69%
    19:00 +8°C° 0 mm 6 m/s 767 mmHg 71%
    20:00 +8°C° 0 mm 5 m/s 767 mmHg 71%
    21:00 +7°C° 0 mm 5 m/s 767 mmHg 71%
    22:00 +7°C° 0 mm 5 m/s 767 mmHg 71%
    23:00 +7°C° 0 mm 5 m/s 766 mmHg 73%
    Mostrar mais